[[[{"header":{"parameterUnit":"kt","parameterCategory":2,"dx":1,"dy":1,"la1":30.253999710083008,"la2":30.299108505249023,"lo1":-89.0895004272461,"lo2":-89.04439544677734,"nx":28,"ny":28,"refTime":"2022-09-20T21:00:00:Z","depth":0,"parameterNumber":1,"parameterNumberName":"U-component_of_WINDS"},"data":[1.9605,1.9636,1.9602,1.9623,1.9596,1.9604,1.9596,1.9583,1.9563,1.9569,1.9567,1.9536,1.9502,1.9492,1.9488,1.9474,1.9476,1.9513,1.9491,1.9356,1.9335,1.9315,1.9307,1.9513,1.9513,1.9637,1.9638,1.9639,1.9512,1.9485,1.9485,1.9463,1.9463,1.9407,1.9384,1.9388,1.9397,1.9373,1.9368,1.937,1.9368,1.9321,1.9313,1.9328,1.9302,1.9329,1.9329,1.9325,1.9179,1.917,1.935,1.935,1.935,1.935,1.935,1.935,1.9334,1.9354,1.9319,1.9319,1.9298,1.9283,1.9296,1.9256,1.9256,1.9243,1.92,1.921,1.9179,1.9151,1.9133,1.914,1.9104,1.9123,1.9128,1.9135,1.9148,1.8981,1.9136,1.9135,1.9135,1.9134,1.9134,0,1.9194,1.9164,1.916,1.9148,1.9145,1.9132,1.9114,1.9121,1.9044,1.9047,1.9048,1.9043,1.9033,1.9031,1.9015,1.8992,1.8936,1.8924,1.8938,1.8961,1.8985,1.8977,1.8743,1.8921,1.8919,1.8918,1.8916,1.8916,1.9015,1.9041,1.8987,1.899,1.8971,1.8976,1.8972,1.8901,1.8901,1.8868,1.8889,1.8884,1.8878,1.8886,1.8839,1.8832,1.8805,1.8877,1.8804,1.8825,1.8811,1.8811,1.8815,1.8895,1.8897,1.89,1.8901,0,1.8919,1.886,1.8889,1.8832,1.8819,1.885,1.8802,1.8818,1.8776,1.8794,1.8793,1.873,1.8732,1.8672,1.8662,1.8632,1.8686,1.8657,1.8697,1.8689,1.8751,1.8747,1.8953,1.8978,1.8759,1.8761,1.8763,0,1.8745,1.8781,1.8693,1.8712,1.875,1.8678,1.8718,1.8686,1.8657,1.8669,1.8594,1.8607,1.8528,1.8534,1.8488,1.852,1.8517,1.8497,1.8485,1.8506,1.8509,1.8507,1.8499,1.8452,1.8451,1.845,1.8449,0,1.8603,1.8596,1.8627,1.8616,1.8559,1.8575,1.8552,1.8518,1.8514,1.8499,1.8497,1.8485,1.8479,1.8471,1.8414,1.8366,1.845,1.8373,1.843,1.8432,1.8454,1.8454,1.8648,1.8448,1.8448,1.8448,1.8447,0,1.8455,1.8441,1.8493,1.8444,1.8445,1.8464,1.8448,1.8451,1.842,1.8392,1.838,1.8323,1.8343,1.8272,1.83,1.8255,1.8254,1.8235,1.8238,1.824,1.8162,1.8284,1.8472,1.8491,1.8237,1.8236,1.8234,0,1.831,1.8346,1.8284,1.8335,1.8343,1.8259,1.8279,1.8253,1.8218,1.822,1.818,1.8183,1.8117,1.811,1.8131,1.8091,1.8149,1.8081,1.8089,1.809,1.8104,1.8275,1.832,1.8436,1.8211,1.8213,1.8215,0,1.8191,1.8119,1.8133,1.8118,1.8071,1.8077,1.81,1.8087,1.8092,1.807,1.8089,1.809,1.8041,1.8029,1.7981,1.8007,1.8107,1.7951,1.7949,1.7984,1.8192,1.8235,1.8255,1.807,1.8072,1.8075,1.8196,0,1.7987,1.7996,1.8028,1.7996,1.799,1.8017,1.7953,1.7956,1.791,1.7872,1.7897,1.7858,1.7845,1.785,1.7805,1.7881,1.786,1.7807,1.7735,1.7847,1.7885,1.7901,1.7683,1.7681,1.7678,1.7677,0,0,1.7865,1.7876,1.7807,1.7825,1.7817,1.7728,1.7763,1.7744,1.7709,1.7705,1.7664,1.7661,1.7632,1.767,1.7699,1.7692,1.7701,1.7664,1.7793,1.7807,1.7819,1.7861,1.7878,1.7673,1.7672,1.7671,1.7671,0,1.7778,1.7748,1.7782,1.7759,1.7723,1.768,1.7688,1.7636,1.7613,1.7635,1.7563,1.757,1.7568,1.7548,1.7538,1.7657,1.7603,1.7657,1.7744,1.7774,1.779,1.7804,1.785,1.7867,1.7665,1.7666,1.7666,0,1.7651,1.7613,1.7622,1.7596,1.7571,1.7581,1.7489,1.7503,1.751,1.7412,1.7436,1.7406,1.7373,1.7415,1.7431,1.7394,1.7518,1.7466,1.7477,1.7479,1.7505,1.7524,1.7541,1.7314,1.7313,1.7313,0,0,1.7585,1.7592,1.7528,1.7572,1.7561,1.7497,1.7495,1.745,1.7421,1.741,1.7371,1.7346,1.7344,1.7345,1.7339,1.7394,1.7383,1.7425,1.7442,1.7456,1.7465,1.7494,1.7513,1.7309,1.7309,1.7309,0,0,1.7553,1.7481,1.744,1.7482,1.7457,1.7398,1.7428,1.7376,1.7364,1.7354,1.7278,1.7268,1.7305,1.7279,1.7238,1.7313,1.7243,1.7251,1.733,1.735,1.7366,1.7373,1.714,0,0,0,0,0,1.7431,1.749,1.7453,1.745,1.7417,1.7418,1.7414,1.7351,1.7304,1.7329,1.7288,1.7229,1.7241,1.7204,1.7203,1.7249,1.7263,1.7271,1.7279,1.7392,1.7414,1.7432,0,0,0,0,0,0,1.7429,1.7426,1.7451,1.7395,1.7387,1.7415,1.7321,1.7306,1.7299,1.7288,1.7238,1.7227,1.7174,1.72,1.72,1.7246,1.714,1.7266,1.7273,1.7279,1.74,1.7417,1.7432,0,0,0,0,0,1.7427,1.7425,1.7388,1.7394,1.7387,1.7318,1.7318,1.7305,1.7299,1.7235,1.7222,1.7252,1.7177,1.7173,1.72,1.7247,1.7139,1.714,1.727,1.7276,1.7281,1.7408,0,0,0,0,0,0,1.7426,1.7413,1.7385,1.738,1.7367,1.7316,1.7305,1.7304,1.7245,1.7232,1.7245,1.7237,1.718,1.7176,1.7173,1.7252,1.7139,1.7139,1.7139,1.7275,1.7279,1.7283,0,0,0,0,0,0,1.7414,1.741,1.7382,1.7351,1.7343,1.7313,1.7304,1.7317,1.7245,1.7258,1.7249,1.7242,1.7184,1.7179,1.7176,1.7199,1.7139,1.7139,1.7139,1.7139,1.7278,1.7282,0,0,0,0,0,0,1.7411,1.7407,1.7352,1.7346,1.7338,1.7283,1.7324,1.7293,1.7219,1.7262,1.721,1.7206,1.7189,1.7185,1.7179,1.7203,1.72,1.7139,1.7139,1.7139,1.7139,0,0,0,0,0,0,0,1.7408,1.7446,1.7411,1.7341,1.7334,1.7339,1.7338,1.7337,1.7218,1.7214,1.7211,1.7208,1.7138,1.7138,1.7138,1.7207,0,0,1.7139,1.7139,0,0,0,0,0,0,0,0,1.7446,1.7446,1.7411,1.741,1.7409,1.7339,1.7338,1.7337,1.7217,1.7214,1.7212,1.7209,1.7138,1.7138,1.7138,0,0,0,0,0,0,0,0,0,0,0,0,0,0,0,1.7411,1.741,0,1.7339,1.7338,1.7337,1.7217,1.7215,1.7212,1.721,1.7138,1.7138,1.7138,0,0,0,0,0,0,0,0,0,0,0,0,0,0,0,0,0,0,0,0,0,0,0,0,0,0,0,0,0,0,0,0,0,0,0,0,0,0,0,0,0,0,0,0,0,0,0,0,0,0,0,0,0,0,0,0,0,0,0,0,0,0,0,0,0,0,0,0,0]}],[{"header":{"parameterUnit":"kt","parameterCategory":2,"dx":1,"dy":1,"la1":30.253999710083008,"la2":30.299108505249023,"lo1":-89.0895004272461,"lo2":-89.04439544677734,"nx":28,"ny":28,"refTime":"2022-09-20T21:00:00:Z","depth":0,"parameterNumber":2,"parameterNumberName":"V-component_of_WINDS"},"data":[-3.5395,-3.5482,-3.5515,-3.5631,-3.568,-3.5765,-3.5806,-3.5862,-3.5915,-3.6021,-3.6087,-3.6129,-3.6195,-3.6283,-3.6357,-3.6374,-3.6403,-3.6411,-3.6429,-3.6365,-3.6358,-3.6351,-3.6333,-3.6417,-3.6417,-3.6492,-3.6493,-3.6493,-3.5347,-3.5397,-3.5467,-3.5558,-3.5619,-3.5632,-3.5705,-3.5755,-3.583,-3.5896,-3.5963,-3.6058,-3.6137,-3.6202,-3.6283,-3.6326,-3.6336,-3.6346,-3.6343,-3.6353,-3.6285,-3.6265,-3.6336,-3.6336,-3.6336,-3.6336,-3.6336,-3.6336,-3.527,-3.5321,-3.5395,-3.5472,-3.5526,-3.5586,-3.5641,-3.5691,-3.576,-3.5849,-3.5874,-3.596,-3.6032,-3.6146,-3.6192,-3.626,-3.6255,-3.6276,-3.6281,-3.6285,-3.6286,-3.6175,-3.6275,-3.6275,-3.6275,-3.6275,-3.6275,0,-3.5224,-3.5248,-3.5317,-3.5396,-3.5454,-3.5518,-3.5583,-3.5617,-3.5678,-3.5733,-3.5814,-3.5867,-3.5971,-3.6051,-3.6134,-3.6178,-3.6196,-3.6201,-3.6216,-3.6205,-3.6185,-3.6198,-3.6086,-3.6198,-3.6197,-3.6197,-3.6197,-3.6196,-3.5149,-3.5204,-3.5296,-3.534,-3.5383,-3.5453,-3.5502,-3.5552,-3.5601,-3.5688,-3.573,-3.5811,-3.5879,-3.6004,-3.6061,-3.6138,-3.6147,-3.6187,-3.6159,-3.6147,-3.6149,-3.6145,-3.6152,-3.6191,-3.6192,-3.6192,-3.6193,0,-3.5104,-3.5156,-3.5251,-3.5337,-3.536,-3.5415,-3.5489,-3.5541,-3.5583,-3.5662,-3.5683,-3.5749,-3.5828,-3.5879,-3.5979,-3.6003,-3.6097,-3.6103,-3.6073,-3.6077,-3.6118,-3.6114,-3.6241,-3.6261,-3.6174,-3.6175,-3.6176,0,-3.506,-3.513,-3.5204,-3.5257,-3.5336,-3.5384,-3.5462,-3.5505,-3.5567,-3.5629,-3.5658,-3.5715,-3.5771,-3.5836,-3.5872,-3.5957,-3.5976,-3.5999,-3.6008,-3.5997,-3.5994,-3.6023,-3.6019,-3.6024,-3.6023,-3.6023,-3.6022,0,-3.4984,-3.5105,-3.519,-3.5226,-3.5323,-3.5362,-3.5405,-3.5474,-3.552,-3.5589,-3.562,-3.5697,-3.5738,-3.5798,-3.5842,-3.5822,-3.5947,-3.5928,-3.5972,-3.5971,-3.5996,-3.5994,-3.6095,-3.6021,-3.6021,-3.6021,-3.6021,0,-3.4956,-3.5024,-3.514,-3.5222,-3.5252,-3.5307,-3.5386,-3.5446,-3.5516,-3.5542,-3.5597,-3.5621,-3.5698,-3.5676,-3.5784,-3.5744,-3.5784,-3.5814,-3.5818,-3.5827,-3.5801,-3.5851,-3.5942,-3.5953,-3.5838,-3.5836,-3.5835,0,-3.4855,-3.4985,-3.5026,-3.5135,-3.5202,-3.5229,-3.5292,-3.5353,-3.5393,-3.5456,-3.55,-3.5571,-3.5564,-3.5594,-3.564,-3.5688,-3.574,-3.5683,-3.5774,-3.5776,-3.5754,-3.5839,-3.5839,-3.5916,-3.5816,-3.5818,-3.5819,0,-3.4783,-3.4899,-3.4915,-3.4958,-3.5046,-3.5102,-3.5174,-3.5254,-3.5294,-3.5359,-3.5421,-3.5521,-3.5521,-3.5568,-3.5595,-3.5641,-3.5707,-3.5634,-3.5637,-3.5646,-3.581,-3.5811,-3.5823,-3.5715,-3.5717,-3.5719,-3.5804,0,-3.4731,-3.4801,-3.4847,-3.4939,-3.499,-3.506,-3.5113,-3.516,-3.5181,-3.5221,-3.5312,-3.5374,-3.5455,-3.5482,-3.5503,-3.5591,-3.5584,-3.5582,-3.5563,-3.5618,-3.5647,-3.5659,-3.5516,-3.5515,-3.5515,-3.5515,0,0,-3.4621,-3.4723,-3.4765,-3.4836,-3.4881,-3.4907,-3.4978,-3.5025,-3.5118,-3.5149,-3.5139,-3.5289,-3.5339,-3.5444,-3.5465,-3.5498,-3.5519,-3.5496,-3.5591,-3.56,-3.5608,-3.5638,-3.565,-3.5515,-3.5515,-3.5514,-3.5514,0,-3.4612,-3.4663,-3.4732,-3.4782,-3.4859,-3.4897,-3.4914,-3.4993,-3.5022,-3.5111,-3.5131,-3.5192,-3.5308,-3.536,-3.5401,-3.5486,-3.5497,-3.5506,-3.5535,-3.5587,-3.5596,-3.5604,-3.5635,-3.5646,-3.5514,-3.5514,-3.5514,0,-3.4551,-3.461,-3.4648,-3.4751,-3.4801,-3.4868,-3.4862,-3.4933,-3.4983,-3.5006,-3.5094,-3.5135,-3.5207,-3.5299,-3.5342,-3.5334,-3.5474,-3.5438,-3.5441,-3.5447,-3.55,-3.551,-3.5519,-3.5399,-3.5398,-3.5398,0,0,-3.4536,-3.4601,-3.4679,-3.4753,-3.4783,-3.4841,-3.4881,-3.4906,-3.497,-3.4996,-3.5048,-3.511,-3.5179,-3.5223,-3.529,-3.5383,-3.5402,-3.5422,-3.5427,-3.5432,-3.5439,-3.5494,-3.5504,-3.5396,-3.5396,-3.5396,0,0,-3.4529,-3.4622,-3.4631,-3.4724,-3.4785,-3.4865,-3.4909,-3.4922,-3.4988,-3.4985,-3.503,-3.5048,-3.5135,-3.5174,-3.5137,-3.5284,-3.5264,-3.5274,-3.5255,-3.5262,-3.5268,-3.5256,-3.5138,0,0,0,0,0,-3.4546,-3.461,-3.4618,-3.4641,-3.4771,-3.4861,-3.4878,-3.4916,-3.4902,-3.4936,-3.4982,-3.4991,-3.5164,-3.5133,-3.5155,-3.5195,-3.5366,-3.5371,-3.5376,-3.5374,-3.5382,-3.5388,0,0,0,0,0,0,-3.4556,-3.4584,-3.4617,-3.4699,-3.4729,-3.4859,-3.4843,-3.4856,-3.49,-3.49,-3.4982,-3.4993,-3.5028,-3.5124,-3.5143,-3.518,-3.5132,-3.5368,-3.5372,-3.5376,-3.5377,-3.5383,-3.5388,0,0,0,0,0,-3.4564,-3.4586,-3.4784,-3.4699,-3.4724,-3.4791,-3.4841,-3.4851,-3.4886,-3.4957,-3.4969,-3.4911,-3.5028,-3.5047,-3.5135,-3.5171,-3.5119,-3.5126,-3.5371,-3.5374,-3.5378,-3.538,0,0,0,0,0,0,-3.4569,-3.4596,-3.479,-3.4799,-3.4677,-3.4785,-3.4803,-3.4848,-3.4941,-3.4953,-3.4888,-3.4887,-3.5028,-3.5043,-3.5058,-3.5165,-3.5108,-3.5115,-3.5119,-3.5374,-3.5376,-3.5379,0,0,0,0,0,0,-3.4584,-3.4604,-3.4795,-3.4765,-3.4771,-3.4778,-3.4795,-3.4875,-3.4942,-3.4867,-3.4869,-3.4887,-3.5006,-3.5041,-3.5052,-3.5176,-3.5099,-3.5106,-3.5111,-3.5114,-3.5376,-3.5378,0,0,0,0,0,0,-3.4593,-3.461,-3.4763,-3.4768,-3.4773,-3.488,-3.485,-3.498,-3.4917,-3.4862,-3.4912,-3.491,-3.5004,-3.5016,-3.5048,-3.5167,-3.5174,-3.51,-3.5104,-3.5108,-3.511,0,0,0,0,0,0,0,-3.4601,-3.4478,-3.4735,-3.477,-3.4775,-3.4885,-3.4887,-3.489,-3.4916,-3.4914,-3.4912,-3.4911,-3.506,-3.5068,-3.5075,-3.516,0,0,-3.5099,-3.5102,0,0,0,0,0,0,0,0,-3.4472,-3.4477,-3.4735,-3.4737,-3.4739,-3.4885,-3.4887,-3.4889,-3.4916,-3.4914,-3.4913,-3.4911,-3.5062,-3.5068,-3.5074,0,0,0,0,0,0,0,0,0,0,0,0,0,0,0,-3.4735,-3.4737,0,-3.4885,-3.4887,-3.4889,-3.4916,-3.4914,-3.4913,-3.4912,-3.5064,-3.5069,-3.5074,0,0,0,0,0,0,0,0,0,0,0,0,0,0,0,0,0,0,0,0,0,0,0,0,0,0,0,0,0,0,0,0,0,0,0,0,0,0,0,0,0,0,0,0,0,0,0,0,0,0,0,0,0,0,0,0,0,0,0,0,0,0,0,0,0,0,0,0,0]}]]]